Time,TemperatureF,DewpointF,PressureIn,WindDirection,WindDirectionDegrees,WindSpeedMPH,WindSpeedGustMPH,Humidity,HourlyPrecipIn,Conditions,Clouds,dailyrainin,SoftwareType,DateUTC
2013-03-16 00:00:00,36.1,34.8,29.83,NE,37,2.0,2.0,95,0.00,,,0.00,Wunderground v.1.15,2013-03-16 04:00:00,
2013-03-16 00:05:00,36.1,34.8,29.83,NE,48,1.0,2.0,95,0.00,,,0.00,Wunderground v.1.15,2013-03-16 04:05:00,
2013-03-16 00:10:00,36.1,34.8,29.83,North,11,1.0,1.0,95,0.00,,,0.00,Wunderground v.1.15,2013-03-16 04:10:00,
2013-03-16 00:15:00,36.1,34.8,29.83,North,6,1.0,1.0,95,0.00,,,0.00,Wunderground v.1.15,2013-03-16 04:15:00,
2013-03-16 00:25:00,36.0,34.7,29.82,NNE,13,1.0,3.0,95,0.00,,,0.00,Wunderground v.1.15,2013-03-16 04:25:00,
2013-03-16 00:30:00,35.9,34.6,29.82,NE,43,2.0,4.0,95,0.00,,,0.00,Wunderground v.1.15,2013-03-16 04:30:00,
2013-03-16 00:35:00,35.9,34.6,29.81,NNE,26,3.0,4.0,95,0.00,,,0.00,Wunderground v.1.15,2013-03-16 04:35:00,
2013-03-16 00:40:00,35.9,34.6,29.81,NE,41,3.0,3.0,95,0.00,,,0.00,Wunderground v.1.15,2013-03-16 04:40:00,
2013-03-16 00:45:00,35.9,34.6,29.81,NE,55,3.0,3.0,95,0.00,,,0.00,Wunderground v.1.15,2013-03-16 04:45:00,
2013-03-16 00:55:00,35.8,34.5,29.80,ENE,63,3.0,5.0,95,0.00,,,0.00,Wunderground v.1.15,2013-03-16 04:55:00,
2013-03-16 01:00:00,35.8,34.5,29.79,ENE,59,4.0,5.0,95,0.00,,,0.00,Wunderground v.1.15,2013-03-16 05:00:00,
2013-03-16 01:10:00,35.7,34.4,29.78,ENE,60,3.0,7.0,95,0.00,,,0.00,Wunderground v.1.15,2013-03-16 05:10:00,
2013-03-16 01:15:00,35.6,34.6,29.77,ENE,75,4.0,7.0,96,0.00,,,0.00,Wunderground v.1.15,2013-03-16 05:15:00,
2013-03-16 01:20:00,35.6,34.6,29.77,NE,49,4.0,4.0,96,0.00,,,0.00,Wunderground v.1.15,2013-03-16 05:20:00,
2013-03-16 01:30:00,35.5,34.5,29.77,ENE,75,4.0,5.0,96,0.00,,,0.00,Wunderground v.1.15,2013-03-16 05:30:00,
2013-03-16 01:35:00,35.5,34.5,29.76,East,84,3.0,5.0,96,0.00,,,0.00,Wunderground v.1.15,2013-03-16 05:35:00,
2013-03-16 01:40:00,35.5,34.5,29.76,East,94,4.0,6.0,96,0.00,,,0.00,Wunderground v.1.15,2013-03-16 05:40:00,
2013-03-16 01:45:00,35.4,34.4,29.75,NE,46,5.0,6.0,96,0.00,,,0.00,Wunderground v.1.15,2013-03-16 05:45:00,
2013-03-16 01:50:00,35.4,34.4,29.75,East,79,5.0,5.0,96,0.00,,,0.00,Wunderground v.1.15,2013-03-16 05:50:00,
2013-03-16 01:55:00,35.3,34.3,29.75,East,89,5.0,5.0,96,0.00,,,0.00,Wunderground v.1.15,2013-03-16 05:55:00,
2013-03-16 02:00:00,35.3,34.3,29.75,East,86,4.0,4.0,96,0.00,,,0.00,Wunderground v.1.15,2013-03-16 06:00:00,
2013-03-16 02:10:00,35.1,34.1,29.75,East,79,5.0,5.0,96,0.00,,,0.00,Wunderground v.1.15,2013-03-16 06:10:00,
2013-03-16 02:20:00,35.0,34.0,29.75,ENE,72,4.0,8.0,96,0.00,,,0.00,Wunderground v.1.15,2013-03-16 06:20:00,
2013-03-16 02:25:00,34.9,33.9,29.75,North,3,4.0,8.0,96,0.00,,,0.00,Wunderground v.1.15,2013-03-16 06:25:00,
2013-03-16 02:30:00,34.9,33.9,29.75,ENE,70,5.0,7.0,96,0.00,,,0.00,Wunderground v.1.15,2013-03-16 06:30:00,
2013-03-16 02:35:00,34.8,33.8,29.75,ENE,68,5.0,7.0,96,0.00,,,0.00,Wunderground v.1.15,2013-03-16 06:35:00,
2013-03-16 02:40:00,34.7,33.7,29.75,NE,55,5.0,6.0,96,0.00,,,0.00,Wunderground v.1.15,2013-03-16 06:40:00,
2013-03-16 02:45:00,34.7,33.7,29.75,ENE,65,5.0,6.0,96,0.00,,,0.00,Wunderground v.1.15,2013-03-16 06:45:00,
2013-03-16 02:50:00,34.7,33.7,29.74,ENE,63,5.0,5.0,96,0.00,,,0.00,Wunderground v.1.15,2013-03-16 06:50:00,
2013-03-16 02:55:00,34.6,33.6,29.74,East,91,5.0,6.0,96,0.00,,,0.00,Wunderground v.1.15,2013-03-16 06:55:00,
2013-03-16 03:00:00,34.5,33.5,29.74,ENE,63,6.0,9.0,96,0.00,,,0.00,Wunderground v.1.15,2013-03-16 07:00:00,
2013-03-16 03:10:00,34.5,33.7,29.74,East,81,5.0,5.0,97,0.00,,,0.00,Wunderground v.1.15,2013-03-16 07:10:00,
2013-03-16 03:15:00,34.4,33.6,29.74,ENE,68,4.0,5.0,97,0.00,,,0.00,Wunderground v.1.15,2013-03-16 07:15:00,
2013-03-16 03:20:00,34.4,33.6,29.74,East,91,4.0,4.0,97,0.00,,,0.00,Wunderground v.1.15,2013-03-16 07:20:00,
2013-03-16 03:25:00,34.3,33.5,29.74,ESE,109,5.0,5.0,97,0.00,,,0.00,Wunderground v.1.15,2013-03-16 07:25:00,
2013-03-16 03:35:00,34.3,33.5,29.74,NE,49,4.0,5.0,97,0.00,,,0.00,Wunderground v.1.15,2013-03-16 07:35:00,
2013-03-16 03:40:00,34.3,33.5,29.75,ENE,63,4.0,5.0,97,0.00,,,0.00,Wunderground v.1.15,2013-03-16 07:40:00,
2013-03-16 03:45:00,34.3,33.5,29.75,NE,55,5.0,5.0,97,0.00,,,0.00,Wunderground v.1.15,2013-03-16 07:45:00,
2013-03-16 03:50:00,34.2,33.4,29.75,NE,34,6.0,6.0,97,0.00,,,0.00,Wunderground v.1.15,2013-03-16 07:50:00,
2013-03-16 03:55:00,34.1,33.3,29.75,NE,46,5.0,6.0,97,0.00,,,0.00,Wunderground v.1.15,2013-03-16 07:55:00,
2013-03-16 04:00:00,34.1,33.3,29.75,NNE,30,5.0,7.0,97,0.00,,,0.00,Wunderground v.1.15,2013-03-16 08:00:00,
2013-03-16 04:10:00,34.0,33.2,29.74,ENE,77,5.0,8.0,97,0.00,,,0.00,Wunderground v.1.15,2013-03-16 08:10:00,
2013-03-16 04:15:00,33.9,33.1,29.74,ENE,68,5.0,8.0,97,0.00,,,0.00,Wunderground v.1.15,2013-03-16 08:15:00,
2013-03-16 04:20:00,33.8,33.0,29.73,East,99,5.0,6.0,97,0.00,,,0.00,Wunderground v.1.15,2013-03-16 08:20:00,
2013-03-16 04:25:00,33.8,33.0,29.73,NE,46,6.0,6.0,97,0.00,,,0.00,Wunderground v.1.15,2013-03-16 08:25:00,
2013-03-16 04:30:00,33.7,32.9,29.72,East,80,7.0,7.0,97,0.00,,,0.00,Wunderground v.1.15,2013-03-16 08:30:00,
2013-03-16 04:40:00,33.6,32.8,29.71,East,98,6.0,9.0,97,0.00,,,0.00,Wunderground v.1.15,2013-03-16 08:40:00,
2013-03-16 04:45:00,33.6,32.8,29.71,East,90,7.0,10.0,97,0.00,,,0.00,Wunderground v.1.15,2013-03-16 08:45:00,
2013-03-16 04:50:00,33.5,32.7,29.70,East,86,8.0,9.0,97,0.00,,,0.00,Wunderground v.1.15,2013-03-16 08:50:00,
2013-03-16 04:55:00,33.5,32.7,29.70,ENE,77,8.0,9.0,97,0.00,,,0.00,Wunderground v.1.15,2013-03-16 08:55:00,
2013-03-16 05:00:00,33.5,32.7,29.70,ENE,62,8.0,8.0,97,0.00,,,0.00,Wunderground v.1.15,2013-03-16 09:00:00,
2013-03-16 05:10:00,33.4,32.6,29.70,ENE,65,6.0,6.0,97,0.00,,,0.00,Wunderground v.1.15,2013-03-16 09:10:00,
2013-03-16 05:15:00,33.4,32.4,29.70,ENE,71,7.0,7.0,96,0.00,,,0.00,Wunderground v.1.15,2013-03-16 09:15:00,
2013-03-16 05:20:00,33.4,32.4,29.70,East,101,7.0,9.0,96,0.00,,,0.00,Wunderground v.1.15,2013-03-16 09:20:00,
2013-03-16 05:25:00,33.4,32.4,29.70,ENE,78,8.0,9.0,96,0.00,,,0.00,Wunderground v.1.15,2013-03-16 09:25:00,
2013-03-16 05:30:00,33.4,32.4,29.70,East,81,6.0,7.0,96,0.00,,,0.00,Wunderground v.1.15,2013-03-16 09:30:00,
2013-03-16 05:35:00,33.4,32.4,29.70,East,86,5.0,7.0,96,0.00,,,0.00,Wunderground v.1.15,2013-03-16 09:35:00,
2013-03-16 05:45:00,33.4,32.4,29.70,ESE,113,6.0,6.0,96,0.00,,,0.00,Wunderground v.1.15,2013-03-16 09:45:00,
2013-03-16 05:50:00,33.3,32.3,29.70,East,83,6.0,13.0,96,0.00,,,0.00,Wunderground v.1.15,2013-03-16 09:50:00,
2013-03-16 05:55:00,33.3,32.3,29.70,East,96,7.0,13.0,96,0.00,,,0.00,Wunderground v.1.15,2013-03-16 09:55:00,
2013-03-16 06:00:00,33.3,32.3,29.71,ENE,62,6.0,6.0,96,0.00,,,0.00,Wunderground v.1.15,2013-03-16 10:00:00,
2013-03-16 06:10:00,33.3,32.3,29.71,ESE,113,5.0,5.0,96,0.00,,,0.00,Wunderground v.1.15,2013-03-16 10:10:00,
2013-03-16 06:20:00,33.3,32.3,29.71,ENE,64,4.0,4.0,96,0.00,,,0.00,Wunderground v.1.15,2013-03-16 10:20:00,
2013-03-16 06:25:00,33.3,32.3,29.72,ENE,70,4.0,7.0,96,0.00,,,0.00,Wunderground v.1.15,2013-03-16 10:25:00,
2013-03-16 06:30:00,33.3,32.3,29.72,East,100,4.0,4.0,96,0.00,,,0.00,Wunderground v.1.15,2013-03-16 10:30:00,
2013-03-16 06:35:00,33.3,32.3,29.72,East,82,5.0,5.0,96,0.00,,,0.00,Wunderground v.1.15,2013-03-16 10:35:00,
2013-03-16 06:40:00,33.3,32.3,29.72,East,83,4.0,4.0,96,0.00,,,0.00,Wunderground v.1.15,2013-03-16 10:40:00,
2013-03-16 06:45:00,33.3,32.3,29.72,ENE,59,4.0,8.0,96,0.00,,,0.00,Wunderground v.1.15,2013-03-16 10:45:00,
2013-03-16 06:50:00,33.2,32.2,29.72,ENE,68,5.0,6.0,96,0.00,,,0.00,Wunderground v.1.15,2013-03-16 10:50:00,
2013-03-16 06:55:00,33.2,32.2,29.72,ENE,60,5.0,6.0,96,0.00,,,0.00,Wunderground v.1.15,2013-03-16 10:55:00,
2013-03-16 07:00:00,33.2,32.2,29.73,East,88,5.0,5.0,96,0.00,,,0.00,Wunderground v.1.15,2013-03-16 11:00:00,
2013-03-16 07:10:00,33.2,32.2,29.73,East,87,5.0,6.0,96,0.00,,,0.00,Wunderground v.1.15,2013-03-16 11:10:00,
2013-03-16 07:20:00,33.2,32.2,29.73,NE,52,4.0,4.0,96,0.00,,,0.00,Wunderground v.1.15,2013-03-16 11:20:00,
2013-03-16 07:25:00,33.2,32.2,29.74,East,82,4.0,4.0,96,0.00,,,0.00,Wunderground v.1.15,2013-03-16 11:25:00,
2013-03-16 07:30:00,33.2,32.2,29.74,ENE,77,4.0,4.0,96,0.00,,,0.00,Wunderground v.1.15,2013-03-16 11:30:00,
2013-03-16 07:35:00,33.1,32.1,29.74,East,100,4.0,8.0,96,0.00,,,0.00,Wunderground v.1.15,2013-03-16 11:35:00,
2013-03-16 07:40:00,33.1,32.1,29.74,East,82,5.0,5.0,96,0.00,,,0.00,Wunderground v.1.15,2013-03-16 11:40:00,
2013-03-16 07:45:00,33.1,32.1,29.74,ESE,113,4.0,5.0,96,0.00,,,0.00,Wunderground v.1.15,2013-03-16 11:45:00,
2013-03-16 07:55:00,33.2,31.9,29.74,East,86,4.0,5.0,95,0.00,,,0.00,Wunderground v.1.15,2013-03-16 11:55:00,
2013-03-16 08:00:00,33.2,31.9,29.74,East,94,4.0,7.0,95,0.00,,,0.00,Wunderground v.1.15,2013-03-16 12:00:00,
2013-03-16 08:10:00,33.1,31.8,29.73,ENE,66,4.0,4.0,95,0.00,,,0.00,Wunderground v.1.15,2013-03-16 12:10:00,
2013-03-16 08:15:00,33.0,31.7,29.73,ENE,69,3.0,4.0,95,0.00,,,0.00,Wunderground v.1.15,2013-03-16 12:15:00,
2013-03-16 08:25:00,32.9,31.6,29.74,ENE,61,4.0,5.0,95,0.00,,,0.00,Wunderground v.1.15,2013-03-16 12:25:00,
2013-03-16 08:30:00,32.9,31.6,29.74,ENE,64,4.0,5.0,95,0.00,,,0.00,Wunderground v.1.15,2013-03-16 12:30:00,
2013-03-16 08:35:00,32.8,31.3,29.74,East,91,4.0,5.0,94,0.00,,,0.00,Wunderground v.1.15,2013-03-16 12:35:00,
2013-03-16 08:40:00,32.8,31.3,29.74,ESE,113,5.0,6.0,94,0.00,,,0.00,Wunderground v.1.15,2013-03-16 12:40:00,
2013-03-16 08:45:00,32.8,31.3,29.74,East,87,6.0,6.0,94,0.00,,,0.00,Wunderground v.1.15,2013-03-16 12:45:00,
2013-03-16 08:50:00,32.8,31.3,29.75,East,86,6.0,6.0,94,0.00,,,0.00,Wunderground v.1.15,2013-03-16 12:50:00,
2013-03-16 09:00:00,32.8,31.3,29.75,NE,36,5.0,5.0,94,0.00,,,0.00,Wunderground v.1.15,2013-03-16 13:00:00,
2013-03-16 09:10:00,32.4,30.6,29.75,East,97,4.0,6.0,93,0.00,,,0.00,Wunderground v.1.15,2013-03-16 13:10:00,
2013-03-16 09:15:00,32.2,30.4,29.76,ENE,68,4.0,6.0,93,0.00,,,0.00,Wunderground v.1.15,2013-03-16 13:15:00,
2013-03-16 09:20:00,32.1,30.3,29.76,NE,41,4.0,4.0,93,0.00,,,0.00,Wunderground v.1.15,2013-03-16 13:20:00,
2013-03-16 09:30:00,31.8,30.0,29.77,ENE,71,4.0,4.0,93,0.00,,,0.00,Wunderground v.1.15,2013-03-16 13:30:00,
2013-03-16 09:35:00,31.6,29.8,29.76,NE,56,4.0,4.0,93,0.00,,,0.00,Wunderground v.1.15,2013-03-16 13:35:00,
2013-03-16 09:40:00,31.6,29.8,29.77,East,86,4.0,4.0,93,0.00,,,0.00,Wunderground v.1.15,2013-03-16 13:40:00,
2013-03-16 09:45:00,31.4,29.6,29.77,ENE,73,5.0,5.0,93,0.00,,,0.00,Wunderground v.1.15,2013-03-16 13:45:00,
2013-03-16 09:50:00,31.4,29.6,29.77,ENE,73,4.0,4.0,93,0.00,,,0.00,Wunderground v.1.15,2013-03-16 13:50:00,
2013-03-16 09:55:00,31.4,29.6,29.77,NE,56,4.0,10.0,93,0.00,,,0.00,Wunderground v.1.15,2013-03-16 13:55:00,
2013-03-16 10:00:00,31.3,29.2,29.78,NE,44,6.0,8.0,92,0.00,,,0.00,Wunderground v.1.15,2013-03-16 14:00:00,
2013-03-16 10:10:00,31.1,29.0,29.78,ENE,59,8.0,8.0,92,0.00,,,0.00,Wunderground v.1.15,2013-03-16 14:10:00,
2013-03-16 10:15:00,31.0,28.9,29.78,NE,53,8.0,8.0,92,0.00,,,0.00,Wunderground v.1.15,2013-03-16 14:15:00,
2013-03-16 10:20:00,31.0,28.9,29.79,NE,43,6.0,7.0,92,0.00,,,0.00,Wunderground v.1.15,2013-03-16 14:20:00,
2013-03-16 10:25:00,31.0,28.9,29.78,NE,53,5.0,7.0,92,0.00,,,0.00,Wunderground v.1.15,2013-03-16 14:25:00,
2013-03-16 10:35:00,30.8,28.8,29.79,NNE,31,8.0,13.0,92,0.00,,,0.00,Wunderground v.1.15,2013-03-16 14:35:00,
2013-03-16 10:40:00,30.7,28.4,29.79,ENE,77,8.0,8.0,91,0.00,,,0.00,Wunderground v.1.15,2013-03-16 14:40:00,
2013-03-16 10:45:00,30.6,28.3,29.79,NE,56,6.0,8.0,91,0.00,,,0.00,Wunderground v.1.15,2013-03-16 14:45:00,
2013-03-16 10:50:00,30.7,28.4,29.79,NE,56,5.0,5.0,91,0.00,,,0.00,Wunderground v.1.15,2013-03-16 14:50:00,
2013-03-16 10:55:00,30.7,28.4,29.80,NNE,33,5.0,5.0,91,0.00,,,0.00,Wunderground v.1.15,2013-03-16 14:55:00,
2013-03-16 11:00:00,30.8,28.8,29.80,East,79,4.0,4.0,92,0.00,,,0.00,Wunderground v.1.15,2013-03-16 15:00:00,
2013-03-16 11:10:00,30.8,28.5,29.81,NE,46,6.0,6.0,91,0.00,,,0.00,Wunderground v.1.15,2013-03-16 15:10:00,
2013-03-16 11:15:00,30.8,28.5,29.81,NE,49,6.0,6.0,91,0.00,,,0.00,Wunderground v.1.15,2013-03-16 15:15:00,
2013-03-16 11:20:00,30.8,28.5,29.82,ENE,61,5.0,7.0,91,0.00,,,0.00,Wunderground v.1.15,2013-03-16 15:20:00,
2013-03-16 11:25:00,30.8,28.5,29.82,ENE,77,4.0,7.0,91,0.00,,,0.00,Wunderground v.1.15,2013-03-16 15:25:00,
2013-03-16 11:30:00,30.6,28.0,29.83,ENE,62,5.0,5.0,90,0.00,,,0.00,Wunderground v.1.15,2013-03-16 15:30:00,
2013-03-16 11:40:00,30.4,28.1,29.83,NNE,32,5.0,6.0,91,0.00,,,0.00,Wunderground v.1.15,2013-03-16 15:40:00,
2013-03-16 11:45:00,30.3,28.0,29.84,NNE,28,6.0,6.0,91,0.00,,,0.00,Wunderground v.1.15,2013-03-16 15:45:00,
2013-03-16 11:50:00,30.2,27.9,29.84,NE,39,6.0,6.0,91,0.00,,,0.00,Wunderground v.1.15,2013-03-16 15:50:00,
2013-03-16 11:55:00,30.3,28.0,29.84,NE,54,5.0,7.0,91,0.00,,,0.00,Wunderground v.1.15,2013-03-16 15:55:00,
2013-03-16 12:00:00,30.2,27.6,29.85,NNE,25,5.0,6.0,90,0.00,,,0.00,Wunderground v.1.15,2013-03-16 16:00:00,
2013-03-16 12:10:00,30.2,27.9,29.85,NNE,18,6.0,6.0,91,0.00,,,0.00,Wunderground v.1.15,2013-03-16 16:10:00,
2013-03-16 12:15:00,30.1,27.8,29.85,NE,46,7.0,10.0,91,0.00,,,0.00,Wunderground v.1.15,2013-03-16 16:15:00,
2013-03-16 12:20:00,29.9,27.6,29.86,NNE,25,8.0,9.0,91,0.00,,,0.00,Wunderground v.1.15,2013-03-16 16:20:00,
2013-03-16 12:25:00,29.7,27.7,29.86,NNE,23,8.0,9.0,92,0.00,,,0.00,Wunderground v.1.15,2013-03-16 16:25:00,
2013-03-16 12:30:00,29.6,27.6,29.87,North,11,7.0,8.0,92,0.00,,,0.00,Wunderground v.1.15,2013-03-16 16:30:00,
2013-03-16 12:35:00,29.5,27.5,29.87,NNE,20,7.0,8.0,92,0.00,,,0.00,Wunderground v.1.15,2013-03-16 16:35:00,
2013-03-16 12:45:00,29.6,27.8,29.87,North,4,7.0,7.0,93,0.00,,,0.00,Wunderground v.1.15,2013-03-16 16:45:00,
2013-03-16 12:50:00,29.6,27.6,29.87,NNE,30,6.0,9.0,92,0.00,,,0.00,Wunderground v.1.15,2013-03-16 16:50:00,
2013-03-16 12:55:00,29.7,27.9,29.88,NNE,33,6.0,9.0,93,0.00,,,0.00,Wunderground v.1.15,2013-03-16 16:55:00,
2013-03-16 13:00:00,29.8,27.8,29.88,NNE,26,8.0,11.0,92,0.00,,,0.00,Wunderground v.1.15,2013-03-16 17:00:00,
2013-03-16 13:10:00,29.1,27.1,29.89,North,350,9.0,9.0,92,0.00,,,0.00,Wunderground v.1.15,2013-03-16 17:10:00,
2013-03-16 13:20:00,28.7,26.7,29.89,NW,316,8.0,8.0,92,0.00,,,0.00,Wunderground v.1.15,2013-03-16 17:20:00,
2013-03-16 13:25:00,28.7,26.7,29.90,NE,43,8.0,8.0,92,0.00,,,0.00,Wunderground v.1.15,2013-03-16 17:25:00,
2013-03-16 13:30:00,28.7,26.7,29.90,North,350,8.0,9.0,92,0.00,,,0.00,Wunderground v.1.15,2013-03-16 17:30:00,
2013-03-16 13:35:00,28.6,26.3,29.90,NE,41,8.0,9.0,91,0.00,,,0.00,Wunderground v.1.15,2013-03-16 17:35:00,
2013-03-16 13:40:00,28.4,26.1,29.91,NNE,14,9.0,9.0,91,0.00,,,0.00,Wunderground v.1.15,2013-03-16 17:40:00,
2013-03-16 13:50:00,28.6,26.3,29.91,NNE,15,6.0,7.0,91,0.00,,,0.00,Wunderground v.1.15,2013-03-16 17:50:00,
2013-03-16 13:55:00,28.5,25.9,29.91,NNE,15,8.0,8.0,90,0.00,,,0.00,Wunderground v.1.15,2013-03-16 17:55:00,
2013-03-16 14:00:00,28.6,26.3,29.90,North,5,9.0,9.0,91,0.00,,,0.00,Wunderground v.1.15,2013-03-16 18:00:00,
2013-03-16 14:10:00,28.7,26.4,29.91,North,356,9.0,9.0,91,0.00,,,0.00,Wunderground v.1.15,2013-03-16 18:10:00,
2013-03-16 14:15:00,28.6,26.0,29.91,NE,38,9.0,9.0,90,0.00,,,0.00,Wunderground v.1.15,2013-03-16 18:15:00,
2013-03-16 14:25:00,28.7,26.1,29.92,North,3,9.0,12.0,90,0.00,,,0.00,Wunderground v.1.15,2013-03-16 18:25:00,
2013-03-16 14:30:00,28.7,26.1,29.92,North,356,9.0,9.0,90,0.00,,,0.00,Wunderground v.1.15,2013-03-16 18:30:00,
2013-03-16 14:35:00,28.8,26.2,29.92,NE,41,8.0,11.0,90,0.00,,,0.00,Wunderground v.1.15,2013-03-16 18:35:00,
2013-03-16 14:40:00,28.9,26.1,29.92,NNE,18,8.0,8.0,89,0.00,,,0.00,Wunderground v.1.15,2013-03-16 18:40:00,
2013-03-16 14:45:00,29.0,26.2,29.93,North,8,8.0,8.0,89,0.00,,,0.00,Wunderground v.1.15,2013-03-16 18:45:00,
2013-03-16 14:50:00,28.9,26.1,29.93,NW,325,10.0,10.0,89,0.00,,,0.00,Wunderground v.1.15,2013-03-16 18:50:00,
2013-03-16 14:55:00,29.1,26.5,29.93,NE,38,9.0,10.0,90,0.00,,,0.00,Wunderground v.1.15,2013-03-16 18:55:00,
2013-03-16 15:05:00,29.4,26.6,29.93,NNE,23,7.0,8.0,89,0.00,,,0.00,Wunderground v.1.15,2013-03-16 19:05:00,
2013-03-16 15:10:00,29.5,26.7,29.93,NW,321,6.0,6.0,89,0.00,,,0.00,Wunderground v.1.15,2013-03-16 19:10:00,
2013-03-16 15:15:00,29.6,26.8,29.93,North,1,6.0,9.0,89,0.00,,,0.00,Wunderground v.1.15,2013-03-16 19:15:00,
2013-03-16 15:20:00,29.7,26.9,29.93,North,5,6.0,8.0,89,0.00,,,0.00,Wunderground v.1.15,2013-03-16 19:20:00,
2013-03-16 15:25:00,29.8,27.0,29.94,North,359,6.0,8.0,89,0.00,,,0.00,Wunderground v.1.15,2013-03-16 19:25:00,
2013-03-16 15:30:00,30.1,27.0,29.94,NNW,337,4.0,4.0,88,0.00,,,0.00,Wunderground v.1.15,2013-03-16 19:30:00,
2013-03-16 15:35:00,30.2,27.1,29.94,NNW,343,3.0,4.0,88,0.00,,,0.00,Wunderground v.1.15,2013-03-16 19:35:00,
2013-03-16 15:40:00,30.2,26.8,29.94,NNW,327,5.0,6.0,87,0.00,,,0.00,Wunderground v.1.15,2013-03-16 19:40:00,
2013-03-16 15:45:00,30.5,27.4,29.94,North,8,5.0,6.0,88,0.00,,,0.00,Wunderground v.1.15,2013-03-16 19:45:00,
2013-03-16 15:50:00,30.5,26.5,29.94,NNE,33,6.0,6.0,85,0.00,,,0.00,Wunderground v.1.15,2013-03-16 19:50:00,
2013-03-16 16:00:00,30.5,26.8,29.94,North,10,7.0,10.0,86,0.00,,,0.00,Wunderground v.1.15,2013-03-16 20:00:00,
2013-03-16 16:10:00,30.5,26.2,29.94,NW,325,8.0,8.0,84,0.00,,,0.00,Wunderground v.1.15,2013-03-16 20:10:00,
2013-03-16 16:15:00,30.5,26.2,29.95,NE,44,7.0,10.0,84,0.00,,,0.00,Wunderground v.1.15,2013-03-16 20:15:00,
2013-03-16 16:20:00,30.6,26.3,29.95,NW,311,7.0,7.0,84,0.00,,,0.00,Wunderground v.1.15,2013-03-16 20:20:00,
2013-03-16 16:30:00,30.8,26.2,29.95,NNE,20,6.0,6.0,83,0.00,,,0.00,Wunderground v.1.15,2013-03-16 20:30:00,
2013-03-16 16:35:00,30.8,26.2,29.95,North,352,6.0,6.0,83,0.00,,,0.00,Wunderground v.1.15,2013-03-16 20:35:00,
2013-03-16 16:40:00,31.0,26.4,29.95,NNE,26,5.0,5.0,83,0.00,,,0.00,Wunderground v.1.15,2013-03-16 20:40:00,
2013-03-16 16:45:00,31.0,26.4,29.95,NNE,18,5.0,5.0,83,0.00,,,0.00,Wunderground v.1.15,2013-03-16 20:45:00,
2013-03-16 16:50:00,30.9,26.1,29.95,NNW,338,5.0,6.0,82,0.00,,,0.00,Wunderground v.1.15,2013-03-16 20:50:00,
2013-03-16 16:55:00,30.8,26.0,29.96,North,356,6.0,6.0,82,0.00,,,0.00,Wunderground v.1.15,2013-03-16 20:55:00,
2013-03-16 17:00:00,30.9,26.1,29.96,NNE,28,5.0,8.0,82,0.00,,,0.00,Wunderground v.1.15,2013-03-16 21:00:00,
2013-03-16 17:10:00,30.8,25.7,29.97,NNW,343,6.0,6.0,81,0.00,,,0.00,Wunderground v.1.15,2013-03-16 21:10:00,
2013-03-16 17:15:00,30.8,26.0,29.97,NNW,338,6.0,6.0,82,0.00,,,0.00,Wunderground v.1.15,2013-03-16 21:15:00,
2013-03-16 17:20:00,30.9,25.5,29.97,NNE,26,6.0,7.0,80,0.00,,,0.00,Wunderground v.1.15,2013-03-16 21:20:00,
2013-03-16 17:25:00,30.9,25.5,29.97,North,358,5.0,7.0,80,0.00,,,0.00,Wunderground v.1.15,2013-03-16 21:25:00,
2013-03-16 17:35:00,30.9,25.5,29.97,NNW,346,6.0,9.0,80,0.00,,,0.00,Wunderground v.1.15,2013-03-16 21:35:00,
2013-03-16 17:40:00,31.0,25.2,29.98,North,360,6.0,10.0,79,0.00,,,0.00,Wunderground v.1.15,2013-03-16 21:40:00,
2013-03-16 17:45:00,31.1,25.3,29.98,NNE,15,5.0,10.0,79,0.00,,,0.00,Wunderground v.1.15,2013-03-16 21:45:00,
2013-03-16 17:50:00,31.1,25.7,29.98,NNE,26,5.0,5.0,80,0.00,,,0.00,Wunderground v.1.15,2013-03-16 21:50:00,
2013-03-16 17:55:00,31.2,25.4,29.99,NNW,340,4.0,5.0,79,0.00,,,0.00,Wunderground v.1.15,2013-03-16 21:55:00,
2013-03-16 18:00:00,31.2,25.4,29.99,NNE,28,4.0,6.0,79,0.00,,,0.00,Wunderground v.1.15,2013-03-16 22:00:00,
2013-03-16 18:10:00,31.2,25.4,29.99,North,6,4.0,4.0,79,0.00,,,0.00,Wunderground v.1.15,2013-03-16 22:10:00,
2013-03-16 18:15:00,31.2,25.4,29.99,NNE,18,5.0,9.0,79,0.00,,,0.00,Wunderground v.1.15,2013-03-16 22:15:00,
2013-03-16 18:20:00,31.3,25.5,29.99,NNE,20,4.0,5.0,79,0.00,,,0.00,Wunderground v.1.15,2013-03-16 22:20:00,
2013-03-16 18:25:00,31.3,25.2,29.99,NNW,345,5.0,10.0,78,0.00,,,0.00,Wunderground v.1.15,2013-03-16 22:25:00,
2013-03-16 18:30:00,31.2,24.8,30.00,North,352,5.0,6.0,77,0.00,,,0.00,Wunderground v.1.15,2013-03-16 22:30:00,
2013-03-16 18:40:00,31.1,24.7,30.00,NNE,25,5.0,5.0,77,0.00,,,0.00,Wunderground v.1.15,2013-03-16 22:40:00,
2013-03-16 18:45:00,31.1,25.0,30.00,NW,309,4.0,5.0,78,0.00,,,0.00,Wunderground v.1.15,2013-03-16 22:45:00,
2013-03-16 18:50:00,31.1,25.0,30.00,WNW,290,3.0,3.0,78,0.00,,,0.00,Wunderground v.1.15,2013-03-16 22:50:00,
2013-03-16 18:55:00,31.1,25.0,30.00,North,352,1.0,3.0,78,0.00,,,0.00,Wunderground v.1.15,2013-03-16 22:55:00,
2013-03-16 19:00:00,31.1,24.7,30.00,NW,325,1.0,1.0,77,0.00,,,0.00,Wunderground v.1.15,2013-03-16 23:00:00,
2013-03-16 19:10:00,31.1,24.7,30.00,NNE,15,2.0,2.0,77,0.00,,,0.00,Wunderground v.1.15,2013-03-16 23:10:00,
2013-03-16 19:15:00,31.1,25.0,30.00,NNW,338,2.0,2.0,78,0.00,,,0.00,Wunderground v.1.15,2013-03-16 23:15:00,
2013-03-16 19:20:00,31.1,25.0,30.00,North,352,1.0,2.0,78,0.00,,,0.00,Wunderground v.1.15,2013-03-16 23:20:00,
2013-03-16 19:25:00,31.0,24.6,30.00,NW,309,1.0,2.0,77,0.00,,,0.00,Wunderground v.1.15,2013-03-16 23:25:00,
2013-03-16 19:30:00,31.0,24.6,30.00,NW,304,1.0,2.0,77,0.00,,,0.00,Wunderground v.1.15,2013-03-16 23:30:00,
2013-03-16 19:35:00,31.1,24.7,30.00,NNW,330,2.0,2.0,77,0.00,,,0.00,Wunderground v.1.15,2013-03-16 23:35:00,
2013-03-16 19:45:00,31.0,24.9,30.01,NW,308,1.0,2.0,78,0.00,,,0.00,Wunderground v.1.15,2013-03-16 23:45:00,
2013-03-16 19:50:00,31.0,24.9,30.01,NW,318,1.0,2.0,78,0.00,,,0.00,Wunderground v.1.15,2013-03-16 23:50:00,
2013-03-16 19:55:00,31.0,25.2,30.01,NW,311,1.0,4.0,79,0.00,,,0.00,Wunderground v.1.15,2013-03-16 23:55:00,
2013-03-16 20:00:00,30.9,25.2,30.01,NW,307,3.0,3.0,79,0.00,,,0.00,Wunderground v.1.15,2013-03-17 00:00:00,
2013-03-16 20:10:00,30.7,25.0,30.02,NNW,334,4.0,4.0,79,0.00,,,0.00,Wunderground v.1.15,2013-03-17 00:10:00,
2013-03-16 20:15:00,30.6,25.2,30.02,WNW,295,4.0,4.0,80,0.00,,,0.00,Wunderground v.1.15,2013-03-17 00:15:00,
2013-03-16 20:20:00,30.5,24.8,30.03,WNW,287,5.0,7.0,79,0.00,,,0.00,Wunderground v.1.15,2013-03-17 00:20:00,
2013-03-16 20:25:00,30.4,24.7,30.02,NNW,327,5.0,7.0,79,0.00,,,0.00,Wunderground v.1.15,2013-03-17 00:25:00,
2013-03-16 20:30:00,30.3,24.9,30.03,NW,311,5.0,7.0,80,0.00,,,0.00,Wunderground v.1.15,2013-03-17 00:30:00,
2013-03-16 20:35:00,30.2,24.5,30.03,WNW,285,4.0,7.0,79,0.00,,,0.00,Wunderground v.1.15,2013-03-17 00:35:00,
2013-03-16 20:40:00,30.2,24.8,30.03,NW,306,4.0,4.0,80,0.00,,,0.00,Wunderground v.1.15,2013-03-17 00:40:00,
2013-03-16 20:50:00,29.8,24.1,30.03,WNW,297,5.0,5.0,79,0.00,,,0.00,Wunderground v.1.15,2013-03-17 00:50:00,
2013-03-16 20:55:00,29.5,24.1,30.03,NW,307,6.0,6.0,80,0.00,,,0.00,Wunderground v.1.15,2013-03-17 00:55:00,
2013-03-16 21:00:00,29.3,23.9,30.04,NW,309,6.0,6.0,80,0.00,,,0.00,Wunderground v.1.15,2013-03-17 01:00:00,
2013-03-16 21:10:00,29.0,23.6,30.04,WNW,302,5.0,5.0,80,0.00,,,0.00,Wunderground v.1.15,2013-03-17 01:10:00,
2013-03-16 21:20:00,28.7,23.6,30.04,WNW,293,4.0,5.0,81,0.00,,,0.00,Wunderground v.1.15,2013-03-17 01:20:00,
2013-03-16 21:25:00,28.6,23.5,30.04,WNW,301,5.0,9.0,81,0.00,,,0.00,Wunderground v.1.15,2013-03-17 01:25:00,
2013-03-16 21:30:00,28.5,23.4,30.04,WNW,299,6.0,6.0,81,0.00,,,0.00,Wunderground v.1.15,2013-03-17 01:30:00,
2013-03-16 21:35:00,28.4,23.6,30.05,NNW,328,5.0,6.0,82,0.00,,,0.00,Wunderground v.1.15,2013-03-17 01:35:00,
2013-03-16 21:40:00,28.2,23.4,30.05,NW,309,5.0,5.0,82,0.00,,,0.00,Wunderground v.1.15,2013-03-17 01:40:00,
2013-03-16 21:45:00,28.1,23.3,30.05,NW,311,5.0,5.0,82,0.00,,,0.00,Wunderground v.1.15,2013-03-17 01:45:00,
2013-03-16 21:55:00,27.7,22.9,30.06,WNW,301,5.0,5.0,82,0.00,,,0.00,Wunderground v.1.15,2013-03-17 01:55:00,
2013-03-16 22:00:00,27.5,23.0,30.06,NW,311,5.0,8.0,83,0.00,,,0.00,Wunderground v.1.15,2013-03-17 02:00:00,
2013-03-16 22:10:00,27.3,22.8,30.07,WNW,300,5.0,5.0,83,0.00,,,0.00,Wunderground v.1.15,2013-03-17 02:10:00,
2013-03-16 22:15:00,27.2,22.7,30.07,NW,312,5.0,6.0,83,0.00,,,0.00,Wunderground v.1.15,2013-03-17 02:15:00,
2013-03-16 22:25:00,27.0,22.5,30.07,NW,304,5.0,5.0,83,0.00,,,0.00,Wunderground v.1.15,2013-03-17 02:25:00,
2013-03-16 22:30:00,26.9,22.4,30.07,NW,316,5.0,5.0,83,0.00,,,0.00,Wunderground v.1.15,2013-03-17 02:30:00,
2013-03-16 22:35:00,26.8,22.3,30.07,WNW,295,4.0,5.0,83,0.00,,,0.00,Wunderground v.1.15,2013-03-17 02:35:00,
2013-03-16 22:40:00,26.7,22.2,30.08,WNW,301,4.0,4.0,83,0.00,,,0.00,Wunderground v.1.15,2013-03-17 02:40:00,
2013-03-16 22:45:00,26.7,22.2,30.08,NW,312,4.0,5.0,83,0.00,,,0.00,Wunderground v.1.15,2013-03-17 02:45:00,
2013-03-16 22:50:00,26.6,22.1,30.08,WNW,298,5.0,5.0,83,0.00,,,0.00,Wunderground v.1.15,2013-03-17 02:50:00,
2013-03-16 23:00:00,26.6,21.8,30.08,NW,316,5.0,5.0,82,0.00,,,0.00,Wunderground v.1.15,2013-03-17 03:00:00,
2013-03-16 23:10:00,26.5,21.7,30.09,NNW,342,4.0,5.0,82,0.00,,,0.00,Wunderground v.1.15,2013-03-17 03:10:00,
2013-03-16 23:15:00,26.3,21.6,30.09,NW,312,4.0,5.0,82,0.00,,,0.00,Wunderground v.1.15,2013-03-17 03:15:00,
2013-03-16 23:20:00,26.4,21.7,30.09,WNW,302,4.0,4.0,82,0.00,,,0.00,Wunderground v.1.15,2013-03-17 03:20:00,
2013-03-16 23:30:00,26.2,21.5,30.09,NW,315,3.0,5.0,82,0.00,,,0.00,Wunderground v.1.15,2013-03-17 03:30:00,
2013-03-16 23:35:00,26.2,21.5,30.09,NW,307,4.0,5.0,82,0.00,,,0.00,Wunderground v.1.15,2013-03-17 03:35:00,
2013-03-16 23:40:00,26.1,21.4,30.10,West,278,4.0,4.0,82,0.00,,,0.00,Wunderground v.1.15,2013-03-17 03:40:00,
2013-03-16 23:45:00,26.1,21.4,30.09,WNW,295,3.0,4.0,82,0.00,,,0.00,Wunderground v.1.15,2013-03-17 03:45:00,
2013-03-16 23:50:00,26.1,21.4,30.10,WNW,297,3.0,3.0,82,0.00,,,0.00,Wunderground v.1.15,2013-03-17 03:50:00,
2013-03-16 23:55:00,26.0,21.3,30.10,WNW,289,3.0,3.0,82,0.00,,,0.00,Wunderground v.1.15,2013-03-17 03:55:00,